User: anonymous
Location: Unspecified
(0.0000°N, 0.0000°E)
Time: 10:17:18
(UTC+02:00)
Language:

Cosmos 1833 Rocket - Orbit

View from above orbital plane
View from above orbital plane
View from above satellite
View from above satellite

Ground track
Ground track

The orbit data is extracted from the following two-line orbital elements,

1 17590U 87027B   14242.09189102 -.00000274  00000-0 -11301-3 0  7586
2 17590 071.0036 142.1257 0003509 038.9967 321.1409 14.16649012419369
Epoch (UTC): 30 August 2014 02:12:19
Eccentricity: 0.0003509
inclination: 71.0036°
perigee height: 834 km
apogee height: 839 km
right ascension of ascending node: 142.1257°
argument of perigee: 38.9967°
revolutions per day: 14.16649012
mean anomaly at epoch: 321.1409°
orbit number at epoch: 41936

The dashed part of the orbit path shows where the satellite is in the earth's shadow,  

DLR